Wind_Speed
22 26 26 23 23 22 21 20 20 19 17 17 16 16 15 15 14 14 13 13 13 13 13 13 14 14 14 14 13 12 12 11 11 12 13 14 16 15 15 13 12 10 11 12 12 12 12 13 13 13 13 14 14 14 15 15 15 15 14 14 14 15 16 15 16 16 16 16 17 16 16 16 15 15 13 13 13 11 11 13 14 14 15 15 15
24 27 27 24 23 22 21 21 20 19 18 17 16 15 15 15 14 13 13 13 13 13 13 14 15 14 14 15 13 12 11 11 11 12 14 15 15 14 13 12 11 10 11 11 12 12 11 12 13 13 12 13 14 13 13 13 13 12 13 13 14 14 13 13 13 14 14 15 16 16 16 15 14 12 10 12 14 12 11 13 14 14 14 14 14
26 27 27 25 24 23 22 21 21 20 19 17 16 15 15 14 14 13 13 13 13 14 14 15 15 14 15 14 13 12 11 11 11 13 15 15 14 14 13 11 11 10 10 11 11 11 11 12 12 12 12 13 13 12 11 12 11 11 11 12 13 13 12 12 12 13 14 15 16 17 16 15 13 12 11 12 14 13 11 13 13 14 14 13 14
26 27 28 26 24 23 22 22 21 20 19 18 16 15 15 14 14 14 14 14 14 14 14 15 15 14 14 13 13 12 11 12 12 13 15 15 13 13 12 11 10 10 10 10 10 11 11 12 12 12 12 12 12 11 10 10 10 10 10 9 11 12 12 13 13 13 15 16 18 18 16 14 13 13 13 12 13 14 13 12 12 13 14 13 14
26 27 29 26 25 23 23 22 21 21 19 18 17 16 15 15 14 14 14 14 14 14 14 15 15 14 13 12 12 12 12 12 11 12 15 15 13 11 10 9 9 8 9 10 9 11 12 11 11 11 11 11 10 10 9 8 8 8 8 9 10 12 13 13 13 13 14 14 15 15 13 14 14 13 13 12 13 14 13 12 13 13 13 14 13
27 29 30 27 26 24 23 23 22 21 20 19 17 16 15 15 15 15 15 15 15 15 15 15 15 14 12 12 12 13 13 12 12 11 13 13 11 10 9 8 8 8 9 9 9 11 11 10 10 10 10 10 10 10 9 8 7 7 7 8 11 12 12 12 12 11 11 10 11 12 12 13 14 14 12 13 13 12 11 11 12 12 12 12 13
27 29 28 28 27 25 24 23 22 21 20 19 17 16 15 15 15 16 16 16 16 15 15 15 14 13 12 11 12 13 13 13 12 11 12 11 10 9 9 9 9 8 9 9 9 10 9 9 9 9 9 9 9 9 9 8 7 8 7 7 10 12 12 11 11 9 8 7 8 10 11 12 13 14 12 12 11 10 11 10 10 12 11 12 12
26 25 24 28 28 26 25 23 23 21 20 19 17 16 15 15 15 16 16 16 16 15 15 15 14 13 12 12 12 13 13 13 12 12 12 10 9 9 10 10 9 8 9 8 8 8 7 8 8 8 9 8 9 8 8 8 7 7 7 7 8 11 12 12 11 9 8 6 6 8 11 12 14 14 12 11 10 9 9 9 9 11 10 11 12
24 24 24 27 28 26 25 24 23 21 20 18 17 16 15 15 15 16 16 16 16 16 15 14 13 13 13 13 13 13 13 13 13 12 12 10 9 9 9 9 9 8 9 8 7 8 7 7 8 8 9 8 8 7 7 7 7 6 6 6 8 12 12 11 10 10 9 9 9 11 13 14 15 14 11 9 10 8 8 8 8 9 9 10 11
24 23 24 27 28 26 25 24 23 21 20 18 17 16 16 15 15 15 16 16 16 15 15 14 13 13 14 14 14 13 13 12 12 12 11 10 9 8 9 9 9 9 9 8 7 8 7 7 8 9 9 7 6 6 6 6 6 5 4 4 8 12 10 9 8 9 9 10 11 12 14 15 13 12 10 8 8 8 7 8 8 8 9 10 11
24 21 24 28 28 26 26 24 23 22 20 18 17 17 17 16 15 15 15 15 15 15 15 14 14 14 15 15 14 12 11 11 10 10 10 9 9 8 8 8 8 8 8 8 8 8 7 8 8 8 7 5 4 4 4 5 4 3 2 3 9 12 8 7 8 9 9 9 10 10 12 12 11 11 11 8 7 7 6 7 9 8 9 9 10
23 21 25 29 28 26 26 24 23 22 20 19 18 18 17 16 15 15 15 14 15 15 15 14 14 14 14 14 13 11 10 10 10 10 9 8 8 7 6 6 7 7 7 8 9 8 7 8 7 5 4 3 3 3 4 4 4 3 2 5 11 12 8 8 7 8 8 9 10 11 12 10 9 9 10 9 7 7 6 7 8 8 8 9 10
22 22 27 29 27 26 25 24 23 22 20 19 18 18 17 17 16 15 15 14 15 15 14 14 14 14 13 13 12 11 10 11 10 9 8 7 7 6 6 6 6 6 8 10 9 8 7 7 6 4 3 3 2 2 4 6 6 6 5 9 13 12 9 7 5 5 6 8 8 11 9 7 6 7 8 9 8 8 8 9 8 7 8 9 9
22 24 28 29 27 25 24 23 23 22 20 19 18 18 17 17 16 15 15 14 15 14 14 14 14 13 13 12 11 11 10 10 9 8 7 6 6 5 5 5 6 7 8 10 9 7 6 6 5 4 4 3 3 4 6 8 8 8 7 11 13 11 8 6 5 6 6 9 9 11 6 5 6 6 8 8 8 8 8 9 8 7 8 8 9
23 25 28 28 26 24 23 23 22 21 20 19 18 17 17 17 16 15 15 14 14 13 13 13 12 12 11 11 10 10 9 9 8 7 6 6 5 5 5 5 6 7 8 9 9 7 6 6 5 5 5 4 5 7 7 7 7 8 7 10 11 9 7 5 6 6 7 9 9 10 7 5 6 7 9 8 9 8 8 9 8 7 8 8 8
22 23 25 27 26 24 23 21 21 20 19 18 17 16 16 15 15 15 14 13 13 12 12 11 11 10 10 10 9 9 8 8 8 7 7 6 5 5 5 5 6 7 8 8 8 7 6 6 5 5 5 6 7 7 5 5 6 8 7 8 9 7 5 5 7 7 6 7 7 9 7 7 7 8 10 8 9 8 8 9 8 8 7 8 8
21 21 24 25 25 24 23 21 20 20 18 17 16 15 14 14 14 14 14 13 12 11 11 10 10 10 10 9 8 8 8 7 8 7 7 6 5 5 5 5 6 6 7 8 8 7 6 5 5 4 5 7 7 6 4 4 5 6 7 7 9 8 6 6 8 7 6 7 9 10 8 9 8 8 9 8 8 9 8 8 8 8 7 8 8
20 21 22 23 23 22 22 20 20 19 17 16 15 14 13 13 14 13 12 11 12 11 11 10 10 10 9 9 8 8 8 8 8 8 7 6 5 4 4 5 5 6 6 7 7 7 5 5 5 4 6 7 7 5 4 3 4 5 7 7 9 9 8 7 7 7 7 7 9 11 8 7 6 6 9 8 8 9 8 8 8 7 7 7 8
19 21 21 21 20 19 20 20 20 18 17 15 15 14 13 13 13 12 11 11 11 11 11 11 10 9 9 8 8 8 8 7 8 8 7 6 5 4 4 5 5 5 6 6 6 6 5 5 5 4 6 8 6 5 4 2 3 4 7 8 11 10 8 7 5 6 9 7 7 9 7 6 5 5 8 8 8 8 8 8 8 7 7 7 7
17 19 20 19 18 18 18 19 19 17 16 14 14 15 14 14 13 12 12 11 11 10 11 10 10 8 9 8 8 8 7 7 7 8 7 6 5 5 5 4 4 5 5 6 6 6 6 6 5 4 6 8 6 5 4 2 2 3 6 8 11 11 7 4 2 3 10 8 6 6 5 4 4 6 8 9 9 8 8 7 7 7 7 7 7
16 17 19 19 17 17 17 18 18 17 17 15 15 15 15 14 14 13 12 12 11 11 11 9 8 8 9 8 8 9 8 7 8 8 7 7 6 6 5 5 4 4 5 6 6 7 7 7 6 6 7 8 6 5 4 3 2 1 4 7 9 11 6 2 3 4 12 9 6 4 3 3 3 7 9 9 9 8 8 7 7 7 7 7 7
16 15 18 18 17 16 16 18 18 17 17 16 15 13 14 15 14 13 12 12 12 12 11 9 8 8 9 9 10 11 10 8 9 9 8 7 7 7 6 6 5 5 5 6 6 6 6 7 7 7 8 8 6 5 5 4 3 2 2 4 7 10 5 1 2 4 11 10 7 5 2 3 4 8 10 9 8 8 8 7 7 7 7 7 7
17 17 19 18 16 17 15 17 18 17 16 14 13 11 13 15 13 12 11 12 12 10 9 7 6 6 8 11 12 11 11 10 10 9 9 9 8 8 8 7 8 7 7 7 6 6 5 6 7 8 8 8 7 6 6 6 5 4 4 4 6 8 4 4 3 3 10 10 8 6 3 3 5 9 10 8 7 8 8 7 6 6 6 6 6
17 18 21 20 18 16 14 16 17 17 16 14 12 11 14 15 14 13 12 13 12 9 8 7 7 8 10 12 13 12 10 10 10 9 9 10 9 9 10 10 10 9 8 7 6 6 6 6 7 8 9 9 10 9 9 11 8 5 5 4 6 7 5 8 6 4 9 9 7 6 4 5 7 11 10 8 8 8 8 8 7 6 6 5 6
16 16 18 21 21 17 16 16 16 16 15 14 12 11 14 14 13 13 12 12 11 9 9 8 10 11 12 13 13 11 10 9 10 10 9 10 10 10 11 11 10 9 8 7 6 6 6 7 8 9 10 10 11 11 12 14 10 6 4 3 5 8 7 8 7 6 8 7 6 5 3 5 8 12 11 8 8 7 7 8 7 6 6 6 5
15 15 15 18 21 18 17 18 16 14 12 12 11 10 12 11 10 11 11 11 9 9 10 10 13 11 10 12 12 11 11 10 9 9 9 9 11 10 10 10 10 9 8 8 8 8 6 6 9 9 9 10 11 12 13 12 9 8 7 7 7 8 7 8 7 6 7 6 6 3 2 5 10 12 11 9 8 6 6 8 7 7 7 6 5
14 15 15 15 18 18 18 19 17 16 13 11 11 10 11 9 10 11 11 9 7 8 10 10 12 11 9 11 11 11 12 12 10 10 9 8 11 11 11 12 12 12 11 10 9 10 7 7 10 9 7 10 11 11 10 8 6 8 9 9 9 8 7 9 9 7 7 7 6 3 1 5 10 12 11 10 8 7 7 7 7 7 7 6 5
15 15 16 14 15 16 18 17 13 15 15 13 12 12 11 10 11 11 10 9 8 7 8 9 11 12 12 12 11 10 10 11 9 8 9 9 12 14 14 13 11 13 12 11 11 10 8 9 10 10 8 10 10 8 8 7 5 6 7 7 6 8 9 9 9 9 8 7 7 4 2 5 9 12 12 11 9 8 7 6 7 6 6 7 6
16 16 15 14 14 15 17 15 12 13 13 12 12 11 10 10 11 10 10 11 9 9 10 9 10 12 12 12 12 11 9 9 9 8 9 11 14 14 14 12 9 11 11 10 11 8 8 10 10 9 9 9 9 9 10 8 7 9 8 7 6 7 9 9 9 9 9 8 8 6 4 4 8 11 12 12 9 9 8 7 7 6 4 6 7
16 16 14 13 13 15 15 16 16 14 12 12 11 10 9 8 6 6 8 9 8 10 10 9 10 10 10 11 13 12 10 9 8 9 9 9 12 12 11 10 9 9 8 9 9 6 5 8 9 8 8 10 11 9 10 11 10 12 11 9 8 8 9 11 11 10 9 8 8 8 6 4 6 9 11 13 11 10 10 8 8 7 4 4 6
16 15 14 11 11 13 13 14 16 15 14 14 12 9 8 7 5 5 7 5 7 9 8 9 10 10 11 12 11 11 11 9 7 8 8 8 11 12 9 8 7 7 6 7 8 6 5 6 8 9 6 9 12 8 7 11 12 12 14 11 9 9 10 11 12 11 11 11 9 9 7 5 5 7 9 11 13 11 10 9 8 8 6 4 5
16 14 14 12 11 13 13 14 15 13 11 14 13 8 9 8 7 9 10 6 8 9 7 9 9 9 11 11 11 10 10 9 7 6 5 6 8 9 8 6 6 5 4 4 4 5 6 8 9 9 7 8 11 8 5 7 11 12 11 11 11 11 11 10 11 12 13 13 12 10 9 8 6 7 8 9 12 12 10 10 9 9 7 6 6
17 15 15 14 12 15 15 14 14 12 10 12 11 9 9 8 7 9 10 8 7 7 6 8 8 8 10 9 10 10 10 9 7 7 5 4 5 5 6 5 5 4 4 4 4 4 7 11 10 8 7 7 10 11 8 4 6 11 13 9 11 12 11 10 10 11 13 14 13 11 10 10 9 8 8 8 10 12 11 10 10 9 8 7 7
17 17 17 14 13 16 14 13 13 12 10 11 9 9 9 8 10 11 9 8 7 7 6 7 7 7 7 6 7 8 8 8 7 8 7 7 6 6 6 6 7 6 7 7 7 9 11 12 11 9 8 8 10 12 12 8 5 8 12 12 9 10 12 12 13 12 11 12 13 13 13 11 12 11 9 9 9 11 11 11 11 9 8 8 8
19 19 18 15 14 14 13 13 12 11 11 10 10 10 9 9 11 12 8 6 7 9 8 8 7 6 6 5 5 6 6 7 7 7 7 9 8 6 6 7 9 9 8 9 9 10 12 11 11 12 10 10 10 10 13 12 10 11 12 12 9 7 9 9 13 15 12 12 11 12 14 13 12 12 12 11 10 11 11 12 11 10 9 10 9
20 20 19 17 16 14 13 14 12 12 11 10 11 11 10 9 10 10 8 6 7 8 8 8 6 4 7 5 4 5 5 5 5 6 7 7 6 6 6 7 9 9 8 9 8 8 11 12 12 12 10 10 10 9 9 7 9 13 12 11 7 8 9 7 5 10 10 12 13 11 11 12 12 12 12 12 12 11 12 12 11 10 10 11 10
21 20 20 18 17 15 15 14 12 12 11 11 11 11 11 10 9 8 7 7 6 6 7 9 7 4 4 3 2 2 1 2 3 4 6 6 4 5 6 6 8 9 9 9 8 8 9 11 11 12 10 10 11 6 2 1 3 8 11 9 6 9 9 9 8 7 7 7 11 13 12 11 11 12 11 11 11 12 12 12 12 11 10 11 11
21 20 20 19 18 16 16 15 13 12 11 11 10 10 10 9 9 8 7 7 6 5 6 7 8 6 5 3 2 2 2 1 2 1 2 2 2 3 4 5 6 7 8 9 8 7 8 8 10 12 11 11 11 6 1 2 2 5 10 9 7 10 10 10 10 9 9 8 8 10 12 12 12 12 12 11 10 12 13 13 12 12 12 11 11
20 21 20 18 19 17 17 16 13 12 12 11 10 10 9 8 8 7 6 8 8 7 6 7 7 6 4 3 2 2 2 3 3 3 3 3 1 1 2 1 2 3 6 7 6 6 6 6 7 9 11 11 11 8 3 4 3 2 4 6 8 11 12 10 10 10 10 11 12 9 8 10 12 12 12 12 12 13 13 14 14 14 13 13 12
20 21 20 19 19 18 18 16 14 14 13 12 11 10 9 7 7 7 7 9 10 8 6 7 8 7 5 3 3 3 4 5 5 5 5 4 3 4 5 5 3 2 3 4 4 4 5 5 6 7 8 9 9 7 4 4 4 5 4 2 6 9 10 11 10 10 10 10 11 11 10 9 10 12 13 13 13 14 14 14 15 15 14 14 13
21 20 20 20 20 19 19 17 16 15 13 12 11 10 9 8 7 7 8 8 8 7 7 9 7 6 5 5 6 5 6 6 5 5 5 4 4 5 6 6 5 4 2 1 1 2 3 4 5 6 6 6 6 5 4 4 3 3 4 2 6 10 11 12 12 11 10 11 11 11 11 10 10 9 11 13 13 13 13 13 14 14 15 15 14
20 21 20 20 20 19 20 19 17 15 14 13 11 9 8 8 7 7 9 8 8 9 9 8 5 5 5 6 7 7 7 7 6 6 6 6 6 7 8 8 6 7 7 3 2 1 2 3 3 3 4 4 4 3 4 4 3 3 3 1 4 7 10 12 14 13 12 12 11 11 10 9 9 8 6 9 12 12 13 13 12 13 13 14 15
19 21 20 21 21 20 20 19 18 16 14 13 11 9 8 8 7 7 9 10 10 12 11 8 6 7 6 6 7 7 7 6 6 7 9 9 8 8 7 8 7 6 7 6 5 5 3 1 1 2 2 2 2 3 4 4 4 4 3 1 0 2 4 6 9 10 10 11 11 10 10 8 7 8 7 7 9 10 11 12 13 13 14 15 16
18 20 20 21 21 20 20 19 19 17 15 14 13 11 10 10 10 10 11 11 10 11 10 8 7 7 7 7 8 8 8 8 7 9 11 8 8 10 6 5 7 6 4 5 7 7 6 6 5 2 2 2 1 1 3 4 5 4 2 1 1 1 1 2 3 5 6 8 9 7 8 8 8 9 8 6 5 6 7 8 10 11 12 13 14
17 19 20 21 20 20 20 20 19 18 17 15 14 14 13 12 12 11 11 11 10 9 9 8 6 6 7 8 8 8 9 10 9 11 11 7 6 8 6 4 6 6 7 7 7 7 5 5 7 7 5 5 5 2 1 1 4 7 4 2 2 1 1 1 1 3 4 5 4 1 2 3 6 8 8 8 7 6 5 5 6 6 6 7 7
17 18 20 19 20 21 21 20 20 19 18 17 16 17 16 14 13 12 11 12 10 9 9 7 7 7 8 7 8 8 9 9 10 10 11 9 7 7 8 9 7 5 8 9 8 9 8 6 8 10 7 6 7 6 5 4 3 6 6 3 1 1 1 0 0 1 2 3 3 2 1 0 3 6 6 8 9 7 6 6 6 6 5 5 6
16 18 19 19 20 21 21 21 20 20 20 18 17 18 17 15 14 12 12 12 11 11 10 8 8 8 7 7 7 8 8 9 10 9 9 9 9 8 8 9 8 6 7 8 8 10 9 7 9 11 8 7 8 7 7 7 5 3 3 2 1 2 3 1 1 1 1 2 2 1 1 2 3 4 5 6 8 8 6 6 6 7 6 6 8
17 19 19 19 21 21 22 21 20 21 22 20 19 19 18 17 15 12 12 13 13 13 11 9 8 8 7 7 7 8 8 8 8 8 9 9 9 8 7 7 8 9 9 8 7 8 8 8 9 9 9 9 9 8 6 6 6 5 4 4 2 2 5 3 2 3 1 2 2 3 3 2 3 5 6 7 8 9 8 6 5 7 7 6 7
16 19 21 21 21 22 22 22 21 21 23 21 20 20 18 18 16 13 12 13 15 14 11 10 9 8 7 6 7 7 7 8 9 8 9 9 8 8 8 8 10 11 10 9 8 7 8 8 8 9 9 9 9 9 9 9 8 6 3 3 4 4 8 5 3 4 3 2 1 2 2 3 3 5 6 6 8 9 8 8 8 8 9 9 9
17 19 22 23 23 23 23 22 21 22 23 23 22 20 19 19 17 14 13 15 16 14 13 12 10 8 7 6 6 7 6 7 9 8 8 8 8 8 8 8 9 10 10 8 8 8 8 9 9 9 9 8 8 9 10 11 9 6 7 5 3 2 4 3 2 3 2 2 2 3 5 4 4 5 6 7 8 9 9 10 12 12 13 14 14
22 22 22 24 24 24 25 24 22 23 24 24 23 21 20 20 18 15 14 17 17 15 15 14 11 10 8 7 6 7 7 7 8 8 8 8 7 7 7 8 8 8 8 7 7 7 8 8 9 9 9 9 9 9 8 9 8 6 8 9 9 7 6 6 5 4 4 2 1 3 5 5 7 7 5 5 6 8 10 11 13 14 15 16 16
Wind_Direction
128 138 146 148 143 142 139 136 134 133 134 132 135 138 145 148 150 151 150 149 149 151 147 141 141 142 140 140 139 135 132 131 123 117 119 120 121 122 122 122 116 106 101 98 93 87 81 80 81 80 77 78 81 82 82 84 87 87 90 88 86 86 85 89 90 93 96 95 93 91 88 85 84 78 70 70 68 69 75 74 71 67 68 68 66
131 140 146 147 144 142 139 136 134 135 134 135 138 142 147 149 151 151 152 151 150 152 147 141 140 141 142 142 141 139 137 136 131 124 126 127 126 126 127 127 118 108 103 97 92 89 85 86 86 84 81 80 81 83 87 90 91 92 91 90 90 91 90 94 95 98 101 102 98 95 91 85 80 72 69 73 67 76 89 79 72 70 71 69 68
131 139 146 147 145 143 140 136 135 135 134 137 140 145 149 150 153 152 153 151 150 151 146 141 140 142 143 141 139 142 145 145 140 134 134 134 134 134 134 130 118 110 105 98 96 95 92 91 90 88 86 84 83 84 91 91 91 92 91 96 97 95 97 96 97 97 98 98 93 93 92 84 77 70 73 82 75 77 85 79 75 73 71 70 70
129 139 147 147 145 144 141 139 137 136 136 138 142 147 149 152 154 154 154 150 148 148 146 142 142 144 143 139 135 140 148 148 146 143 142 141 141 140 139 134 124 116 109 101 98 97 93 91 90 90 90 88 86 86 92 93 91 89 88 96 102 99 98 99 101 101 101 96 86 84 86 80 76 72 75 85 82 76 74 75 74 74 73 71 71
130 142 148 146 146 145 143 142 139 138 138 139 142 145 146 146 146 148 149 146 144 144 145 143 144 143 141 135 130 138 146 149 148 147 151 153 149 143 143 141 134 125 112 104 99 95 91 90 91 90 91 89 87 89 91 94 94 94 91 95 106 104 102 105 106 108 109 103 90 85 83 81 78 74 77 81 79 75 72 70 69 72 73 71 72
134 144 146 146 147 147 145 143 142 140 139 141 142 143 141 139 137 140 141 142 143 143 143 143 143 141 136 131 130 139 145 147 148 149 156 160 158 151 149 145 136 125 115 108 100 94 92 90 90 91 92 90 86 90 93 93 98 103 100 100 108 107 106 104 103 106 107 109 104 98 93 87 82 77 75 73 74 74 72 69 68 71 72 72 72
134 141 144 148 149 149 148 144 143 141 141 141 141 142 140 139 139 140 139 141 142 142 141 141 141 137 133 131 133 140 145 144 144 151 156 159 159 155 152 144 133 126 116 106 100 95 93 93 94 96 95 93 89 90 95 99 103 109 111 105 108 110 107 101 99 99 100 107 107 113 110 93 89 86 79 75 74 74 76 74 71 70 70 74 74
134 138 142 149 151 151 149 145 145 143 143 141 142 142 140 140 140 141 139 139 140 140 139 139 137 134 134 133 135 139 145 145 145 151 157 158 154 154 151 139 129 126 114 105 108 101 98 100 99 102 99 95 92 94 97 104 106 107 117 108 108 114 106 99 94 85 87 80 77 121 124 102 97 94 86 81 79 78 80 77 73 77 78 81 79
135 137 143 152 152 151 149 147 147 145 144 143 143 140 138 138 138 139 137 138 139 139 138 136 134 133 134 133 133 135 140 144 147 148 151 149 143 147 144 133 128 130 124 128 135 119 110 107 110 110 102 100 98 103 104 108 111 109 116 104 111 119 107 95 92 88 80 62 75 112 116 103 98 96 91 81 78 79 89 87 79 88 92 88 81
135 137 145 154 153 152 150 148 149 147 146 144 143 139 136 136 135 137 135 137 138 139 138 135 133 133 135 135 132 132 135 139 143 143 143 140 137 139 139 140 141 144 141 146 151 134 124 124 132 120 107 111 107 111 118 119 120 115 109 94 116 128 119 103 99 92 75 64 88 113 117 111 102 99 93 83 85 88 106 100 80 87 89 85 84
135 133 146 154 153 153 151 150 151 149 148 146 144 140 136 136 136 137 136 136 136 138 138 135 134 135 137 137 136 133 133 137 141 142 141 140 144 144 142 146 148 155 154 152 154 146 142 149 153 133 118 119 113 117 120 114 111 107 91 100 127 139 131 109 99 84 79 80 88 108 122 115 97 98 96 93 99 96 110 96 79 85 88 90 91
132 132 149 154 153 155 153 153 153 151 149 148 146 141 138 138 138 139 139 138 138 138 137 136 136 136 137 138 139 134 134 140 143 144 145 146 148 149 145 143 145 155 157 156 156 154 159 165 165 150 135 121 123 120 99 86 77 71 83 125 135 138 120 104 102 86 97 101 100 114 116 102 80 87 97 99 103 97 98 92 87 87 88 92 91
129 137 151 153 155 157 155 155 154 153 151 150 147 143 141 140 139 140 141 141 139 139 138 138 137 138 138 140 141 138 140 144 146 148 151 155 154 152 143 138 141 145 152 158 160 158 164 172 171 158 142 123 124 103 90 83 76 68 89 136 136 127 113 106 90 66 101 105 124 146 128 101 73 77 99 106 107 101 100 96 93 89 89 91 89
133 143 151 152 156 157 157 157 156 156 154 154 150 145 144 142 141 140 141 142 140 139 138 138 139 140 141 143 143 143 146 147 151 153 157 165 163 159 149 142 138 139 151 160 163 163 166 171 169 151 129 108 107 104 96 83 74 66 86 137 137 128 125 108 55 41 102 108 131 155 139 104 82 90 113 120 118 109 109 104 99 96 93 93 93
133 141 150 154 156 158 159 160 159 158 158 157 154 149 147 145 143 143 143 142 141 140 139 140 140 143 146 146 146 146 150 153 154 155 157 164 163 162 156 146 139 139 147 157 161 157 165 173 165 149 130 104 113 117 104 83 71 66 86 140 147 142 132 95 61 62 111 116 122 133 127 115 96 106 119 124 126 118 117 112 108 102 95 93 92
132 137 148 154 155 159 161 162 163 160 161 160 157 153 149 146 145 146 146 146 145 143 142 144 146 150 152 150 150 150 154 160 160 159 158 162 159 159 159 145 136 138 139 148 160 155 164 180 165 145 131 125 128 127 116 87 75 75 88 140 162 157 130 99 87 83 115 128 139 141 131 128 116 117 122 127 130 125 121 116 112 106 99 97 91
134 138 146 153 156 160 162 165 166 163 164 161 159 157 154 150 149 150 151 151 148 147 148 151 155 157 155 150 152 155 162 167 164 164 163 164 163 160 161 148 139 144 144 146 161 164 170 183 169 146 140 144 143 139 135 101 81 82 88 133 164 153 127 118 102 95 118 129 145 146 127 122 124 127 129 132 134 129 125 121 118 113 106 103 98
136 139 144 151 156 160 162 166 167 165 165 162 162 161 158 155 155 156 154 153 150 151 155 159 163 161 152 143 153 165 168 169 168 170 170 171 172 172 165 159 152 150 153 151 161 171 177 187 178 157 153 159 157 149 146 117 88 84 95 128 154 144 132 132 103 102 126 124 131 132 124 116 113 125 130 135 138 134 131 130 126 119 112 108 102
137 140 143 148 153 156 162 166 165 165 164 161 164 165 166 163 159 159 157 156 156 157 163 168 168 160 142 139 163 172 172 173 172 173 175 177 175 177 174 167 160 155 160 160 166 176 180 185 183 172 167 170 164 154 155 135 97 90 102 127 149 145 143 140 100 108 134 137 136 126 118 111 104 120 132 142 143 139 139 135 130 123 117 112 107
134 139 142 145 151 153 161 165 163 162 158 156 169 172 171 169 163 164 163 160 161 163 173 177 170 151 134 149 173 168 176 185 181 182 178 177 176 178 183 176 171 169 169 168 175 186 191 193 192 189 182 181 173 166 169 150 108 96 108 128 151 156 152 135 33 140 147 147 145 121 100 99 117 127 134 147 146 143 144 139 133 127 121 116 110
132 137 143 147 150 152 156 160 159 155 152 158 173 175 173 174 173 172 168 165 168 170 176 176 167 146 132 160 179 167 181 189 185 190 181 178 183 182 183 188 193 189 182 180 185 192 199 204 200 191 188 190 184 181 185 174 147 94 121 133 155 170 164 71 352 150 155 165 159 138 104 97 132 135 137 149 148 147 146 144 140 133 127 120 112
137 141 144 148 149 151 153 154 155 151 156 167 171 170 173 176 180 180 176 175 177 177 175 167 160 140 136 171 187 177 181 184 185 188 183 183 188 188 187 194 202 201 198 196 196 201 209 214 209 192 190 196 195 200 206 203 194 187 173 159 164 174 173 333 320 145 158 172 163 155 136 119 149 143 144 153 152 150 149 150 146 140 135 127 119
146 150 149 150 146 149 153 150 151 153 160 171 166 162 172 176 179 180 184 189 187 182 171 160 153 144 159 186 193 189 187 188 192 191 185 186 189 191 195 201 205 207 207 205 203 210 221 226 222 206 199 202 211 218 218 229 226 200 197 209 176 163 179 212 226 147 154 161 152 149 137 142 155 145 150 158 154 151 150 153 153 148 141 138 131
148 151 152 151 146 146 145 141 145 154 161 165 162 159 171 178 178 179 190 200 195 182 170 168 173 181 191 196 196 198 199 199 199 195 190 192 196 196 200 207 210 209 207 207 210 218 226 231 226 219 217 218 227 228 226 237 236 210 194 205 179 160 189 204 189 141 147 151 145 143 134 150 150 145 155 160 156 158 157 158 160 160 151 147 141
144 143 146 146 145 141 135 137 145 154 159 157 156 157 166 172 176 181 190 197 194 180 175 186 193 201 209 207 202 200 205 210 205 196 191 194 198 203 208 211 214 215 211 206 214 224 221 226 225 221 222 226 232 229 235 235 220 207 204 203 186 174 194 204 185 149 150 151 142 135 131 159 151 148 158 162 164 168 163 164 163 166 164 156 149
145 142 138 140 142 139 134 137 141 149 151 148 150 152 157 162 172 184 189 191 193 187 186 201 208 204 202 205 199 197 208 211 204 199 196 195 195 204 213 214 214 214 212 204 214 233 224 216 223 225 226 229 234 233 244 240 202 197 217 218 202 190 199 206 194 164 163 160 141 128 125 165 157 151 159 163 171 176 164 166 170 172 171 164 160
150 143 141 143 142 141 141 139 139 141 139 146 158 156 154 160 173 182 189 188 179 181 186 197 212 210 203 207 198 199 210 202 195 200 197 197 201 205 209 212 212 209 211 203 211 236 232 215 217 221 233 237 240 238 246 251 209 199 218 221 206 200 204 201 198 179 171 166 148 145 138 166 161 152 159 165 169 178 171 171 178 181 176 171 169
146 137 142 150 146 143 143 141 142 143 142 150 161 165 170 170 172 177 183 186 172 169 178 185 203 210 215 221 214 212 211 193 187 193 191 196 208 210 209 214 216 214 218 213 216 232 229 224 223 219 230 239 239 235 236 247 241 228 237 237 209 200 199 195 198 182 176 176 160 158 144 162 165 156 159 166 169 177 181 177 177 187 186 179 176
138 136 145 153 151 144 143 144 148 151 151 153 156 165 174 169 172 177 178 181 178 177 185 190 197 203 211 219 219 215 206 193 187 186 190 200 214 218 214 220 223 217 222 227 227 229 229 231 232 229 232 236 233 227 222 224 238 237 240 254 238 212 200 195 199 187 183 187 172 164 155 153 166 164 163 167 172 178 181 181 182 191 199 184 181
137 140 146 152 149 143 144 146 149 155 158 155 155 165 170 169 178 196 192 183 181 186 189 192 204 208 207 210 213 211 201 196 195 195 199 209 224 231 225 225 224 215 217 228 230 228 243 238 237 245 240 240 244 239 220 214 229 229 219 237 249 235 215 199 196 194 187 187 180 171 168 155 160 168 169 172 175 177 180 183 184 192 207 190 182
141 142 142 146 141 140 141 137 141 148 155 155 154 161 165 167 166 185 199 193 192 196 190 191 209 213 206 205 207 212 208 200 197 198 201 207 218 224 224 223 219 219 220 231 233 232 262 262 255 256 244 247 254 260 244 225 232 229 212 215 233 243 232 201 192 200 191 186 189 183 180 172 164 170 173 177 179 179 183 183 178 189 201 188 180
145 144 138 139 135 130 123 118 130 134 137 143 144 152 161 166 161 167 177 179 192 194 184 188 204 216 213 205 194 202 212 209 205 190 191 204 207 213 214 217 219 224 240 255 245 238 268 273 270 260 243 251 247 248 266 238 236 244 230 208 208 233 237 203 193 207 198 189 192 193 190 187 185 179 174 180 185 186 186 182 180 191 198 187 188
146 142 135 135 124 115 110 108 124 122 108 121 129 137 149 160 151 149 156 158 178 188 189 188 193 214 219 211 198 201 207 212 217 200 199 213 216 232 227 228 231 219 244 271 271 254 249 252 264 260 243 257 249 244 252 231 232 258 266 240 206 214 222 208 207 214 202 195 197 201 200 197 197 191 180 179 187 193 190 185 184 191 194 186 191
141 137 135 133 118 112 112 109 120 116 106 110 105 105 114 122 129 127 129 143 160 166 190 194 188 213 223 219 208 204 202 205 213 202 204 211 216 242 238 241 244 228 229 237 240 237 230 237 251 244 233 245 249 253 250 239 231 252 275 273 241 222 218 213 212 214 209 202 200 202 203 203 201 195 189 183 184 194 194 189 189 190 190 183 188
137 137 137 134 125 121 119 116 119 113 106 104 92 96 96 88 104 110 109 125 142 144 167 180 179 202 204 212 216 205 201 204 209 197 201 216 219 224 220 225 238 239 231 219 220 227 226 234 244 236 235 241 241 247 245 245 240 241 276 288 271 266 256 237 210 204 209 208 204 201 202 205 205 198 194 191 189 194 194 193 195 195 190 185 191
138 140 139 136 130 129 126 121 120 113 107 105 97 99 100 89 95 103 108 119 130 136 150 153 144 175 180 189 214 210 215 218 218 203 203 222 226 223 219 215 229 242 237 219 214 219 223 227 233 235 244 249 243 232 226 247 246 245 286 309 300 302 296 299 248 211 214 212 211 209 202 201 203 200 197 197 197 199 200 198 198 197 189 189 197
143 143 140 138 133 131 131 125 121 118 113 109 103 102 103 101 106 108 106 113 123 136 152 148 123 110 129 125 151 178 248 246 237 224 226 234 229 236 242 232 231 232 227 224 218 215 224 224 223 230 241 248 250 247 202 262 264 260 291 306 314 323 308 309 313 281 270 244 222 215 207 203 201 199 198 201 204 204 205 204 203 199 192 192 199
147 145 142 140 136 133 133 129 126 125 119 114 110 110 109 106 109 107 106 112 100 88 112 125 116 107 89 63 79 76 37 359 350 319 295 277 233 253 262 245 239 227 220 227 226 222 230 225 216 223 236 241 245 269 319 196 251 296 296 289 299 326 326 309 302 290 288 296 277 237 216 212 208 202 199 201 211 214 209 207 207 205 202 200 202
150 147 144 141 138 136 136 134 131 130 127 121 116 115 115 106 109 110 111 114 101 85 83 87 93 98 81 56 63 47 44 38 20 14 18 28 57 32 25 322 258 239 228 231 227 222 231 224 213 223 239 242 241 256 261 231 233 234 286 306 301 315 335 327 308 299 285 288 300 296 258 231 218 214 211 208 216 223 217 208 207 209 210 211 211
152 149 147 144 141 140 139 139 139 136 132 128 124 124 122 116 119 116 102 96 97 95 87 89 95 95 84 75 71 38 47 54 35 29 36 40 54 57 45 37 19 319 259 249 235 219 232 233 219 227 242 244 245 251 242 249 251 179 173 284 279 285 315 322 309 309 305 290 291 303 299 269 240 227 220 216 218 221 221 213 209 212 214 217 219
154 152 150 147 145 145 144 144 145 142 139 139 136 135 134 128 123 116 113 108 111 115 96 90 96 100 92 78 71 59 60 61 47 54 62 50 50 57 55 51 37 17 6 288 261 213 233 237 217 222 239 241 246 256 236 231 238 154 152 227 258 264 285 294 286 289 304 301 291 294 295 289 280 255 225 218 221 221 218 215 215 218 220 223 225
157 156 155 150 149 150 147 148 149 147 145 145 142 139 136 134 134 133 133 122 116 120 108 95 96 97 86 71 67 65 70 72 68 75 80 69 53 49 57 60 51 37 46 63 47 18 242 251 239 225 232 235 235 246 233 216 194 126 106 74 272 265 269 275 275 278 287 290 290 289 285 286 292 287 255 233 232 230 223 219 222 222 222 224 227
163 159 158 153 152 152 150 151 151 151 150 147 144 138 124 121 127 128 124 109 99 105 103 100 101 93 81 72 68 64 67 73 74 71 73 74 57 48 56 54 53 52 53 68 63 50 63 53 320 249 223 212 222 245 240 223 187 133 100 94 196 259 253 248 262 276 279 274 278 280 272 268 278 286 290 271 249 245 237 228 228 226 224 226 229
169 164 160 156 155 154 153 154 154 153 152 149 146 140 124 114 109 106 114 115 105 103 103 102 100 91 79 73 69 65 64 64 61 64 71 73 56 56 61 42 46 47 33 68 72 52 50 57 57 75 124 139 138 257 246 227 203 171 121 111 110 43 255 189 233 260 257 256 266 278 267 251 255 271 285 292 288 281 262 239 234 233 227 228 234
178 171 165 160 158 157 156 157 156 155 153 150 149 145 133 124 116 107 111 117 114 114 115 110 103 94 84 77 71 67 69 67 62 66 70 70 64 61 55 43 51 44 29 49 66 47 37 46 50 63 85 104 103 109 108 130 193 193 186 163 116 108 216 124 176 240 235 239 248 306 331 260 253 265 272 279 291 304 295 257 243 242 228 222 228
186 178 170 165 162 159 158 159 157 157 155 151 153 148 139 136 132 125 125 128 134 137 128 120 109 98 92 86 80 74 72 70 67 70 70 68 76 64 50 55 60 56 41 39 45 41 37 31 33 47 64 80 90 101 99 86 140 196 204 200 199 224 240 358 134 226 265 259 239 170 136 223 263 269 266 269 280 291 298 292 279 270 263 241 229
190 182 175 169 165 161 160 161 159 158 157 155 155 150 145 146 145 145 149 149 144 134 126 123 113 103 103 98 90 86 79 76 75 77 75 71 77 71 60 60 60 71 62 44 41 43 41 29 27 39 47 55 70 88 112 119 123 150 171 164 206 233 218 242 85 89 315 276 301 17 181 231 255 270 271 266 272 281 291 301 293 276 271 265 250
190 183 179 173 168 164 163 163 161 160 160 159 158 154 151 153 154 159 163 155 140 130 128 128 121 116 116 107 101 97 88 86 86 85 84 82 83 78 67 60 58 73 78 63 53 51 52 45 38 42 43 45 47 54 86 107 110 120 146 154 114 150 181 180 123 127 166 243 301 10 12 330 285 262 265 264 267 279 285 280 272 261 258 260 254
197 186 182 177 171 167 165 164 163 162 163 163 161 157 157 157 157 165 167 150 137 136 138 136 131 129 125 116 113 108 99 96 95 94 94 90 87 81 72 60 55 65 76 73 64 59 60 57 54 52 47 45 43 45 54 54 65 82 96 182 178 163 171 183 190 167 173 224 271 309 309 328 314 268 259 260 260 268 272 262 255 255 255 257 261
206 196 184 178 174 170 167 167 165 164 166 166 163 160 161 161 160 168 167 147 142 148 147 143 142 140 135 129 125 119 113 109 106 106 104 99 93 86 80 73 65 67 74 73 68 65 64 61 60 59 57 57 51 51 56 52 55 57 35 29 35 99 154 174 201 188 202 218 223 260 258 255 256 257 255 256 261 260 266 272 269 266 264 264 269
209 199 184 180 178 172 170 169 167 167 169 168 165 162 164 164 162 171 170 152 152 157 150 149 152 150 149 148 144 136 129 125 121 119 115 111 108 99 91 86 81 79 78 78 77 72 67 64 62 59 60 62 59 57 60 57 56 53 44 38 34 37 39 34 35 30 16 360 326 287 288 273 243 250 257 252 274 274 272 282 282 277 274 269 270
Height
757 757 761 763 765 766 768 767 769 769 771 773 773 775 776 778 778 780 781 782 783 785 786 787 789 790 791 792 794 794 796 796 797 798 799 800 801 802 803 804 804 805 806 806 807 808 809 809 809 810 810 810 811 811 811 812 812 813 814 814 815 816 816 817 817 817 818 818 819 820 820 821 822 822 823 823 823 824 823 824 823 823 823 823 824
756 758 761 763 766 766 768 768 770 770 772 773 774 776 777 778 779 780 781 783 784 785 787 788 789 791 792 793 795 795 797 797 798 799 800 802 802 803 804 805 805 806 807 807 808 809 810 810 811 811 811 812 812 812 812 813 813 814 815 815 816 817 817 818 818 819 819 819 820 820 821 822 823 823 823 824 824 824 824 824 824 824 824 825 825
755 758 761 764 766 767 769 769 770 771 772 774 775 777 777 779 779 781 782 784 785 786 788 789 791 792 793 794 795 797 797 798 799 800 801 802 803 804 805 806 807 807 808 809 809 810 811 811 812 812 813 813 813 814 813 814 814 815 815 816 817 818 818 818 819 819 820 820 820 821 821 823 824 824 825 825 825 825 825 826 826 825 825 826 826
755 758 761 764 766 768 769 770 771 771 773 774 776 777 778 779 780 781 782 784 785 787 788 789 791 792 794 795 796 798 798 799 800 801 802 803 804 805 806 807 808 809 809 810 810 811 812 812 813 813 814 814 815 814 815 815 815 816 816 817 818 818 819 819 820 820 821 821 821 821 822 823 824 825 826 826 826 827 827 827 827 826 827 827 827
756 758 762 765 767 769 769 770 771 772 774 775 776 778 779 780 781 782 783 785 786 788 789 790 792 793 795 796 797 798 799 800 801 802 803 804 805 806 807 808 809 810 810 811 811 812 813 814 814 815 815 815 816 816 816 816 816 817 817 818 819 819 820 820 821 821 821 822 822 823 824 823 825 826 827 828 828 828 829 828 828 828 828 828 828
756 759 762 765 767 769 770 771 772 773 774 776 777 778 779 780 781 782 784 785 787 788 790 791 792 794 795 796 798 799 800 801 802 803 804 805 806 807 808 809 810 810 811 812 813 813 814 815 815 816 816 816 817 817 817 817 818 818 818 819 819 820 820 821 821 822 822 822 823 825 826 824 825 827 828 829 829 829 830 830 829 829 829 829 829
757 760 763 764 767 769 770 772 773 774 774 776 777 778 779 780 782 783 784 786 787 789 790 792 793 795 796 797 798 800 801 802 803 804 805 806 807 808 809 810 811 811 812 813 814 814 815 815 816 817 817 817 817 818 818 818 818 818 819 820 820 821 821 821 822 822 822 823 824 826 827 825 826 828 830 830 830 831 831 831 830 830 830 830 829
758 762 763 765 767 769 771 772 773 775 775 777 777 779 780 781 782 784 785 786 788 789 791 792 794 795 796 798 799 800 802 803 804 805 806 807 808 809 809 811 811 812 813 814 814 815 816 816 817 817 817 818 818 819 819 819 819 819 820 820 821 821 821 822 822 823 823 824 825 827 827 826 827 829 831 831 831 832 832 832 831 831 831 831 830
761 762 764 766 767 769 771 772 774 775 776 778 778 780 781 782 783 785 786 787 789 790 792 793 795 796 797 799 800 801 802 804 805 806 807 808 809 809 810 811 812 813 813 814 815 815 816 817 817 818 818 818 819 819 820 820 820 820 820 821 822 822 822 822 823 823 823 825 826 827 827 827 828 829 832 832 832 832 832 833 832 832 832 831 831
762 763 765 766 768 771 771 773 775 776 778 778 780 781 782 783 784 786 787 788 789 791 792 794 795 797 798 800 801 802 804 805 806 807 808 809 810 810 811 812 813 813 814 815 815 816 816 817 818 818 818 818 819 820 820 820 820 821 821 822 822 822 822 822 823 823 824 826 827 827 826 827 829 830 832 833 833 833 833 833 833 833 832 832 832
762 764 766 767 769 771 772 774 775 777 778 780 781 782 783 784 786 787 788 789 790 792 793 795 796 798 799 801 802 803 805 806 807 808 809 810 810 811 812 812 813 813 814 815 815 816 816 817 818 818 819 819 820 820 821 821 821 821 821 822 822 822 822 823 823 823 825 827 827 827 827 827 828 831 832 833 834 833 834 834 834 834 833 833 833
763 765 766 768 770 772 773 774 776 778 779 781 782 783 785 785 787 788 789 791 792 793 794 796 797 799 800 802 803 804 806 807 808 809 809 810 811 811 812 813 813 814 815 815 816 817 817 817 818 819 819 820 820 820 821 821 822 822 822 822 822 823 823 823 823 823 826 828 828 827 827 827 829 831 832 834 834 834 834 834 835 835 834 834 834
764 765 766 769 770 773 774 775 777 778 780 782 783 784 786 787 789 790 791 792 793 795 796 797 798 800 801 803 804 805 806 807 808 809 810 810 811 812 812 813 813 814 815 815 816 817 817 818 818 819 820 820 821 821 822 822 822 822 822 822 822 823 823 823 823 823 826 828 827 827 827 828 830 831 832 834 835 835 835 835 836 835 835 835 835
764 765 767 769 771 774 774 776 777 779 781 782 784 785 787 788 790 791 793 794 795 796 797 799 799 801 802 803 805 806 807 808 809 809 810 811 812 813 813 814 814 815 815 816 817 817 818 818 819 819 820 821 821 822 822 823 823 823 823 823 823 823 823 823 823 824 826 828 827 827 827 829 830 831 833 835 835 836 836 836 836 836 836 835 835
765 766 769 770 772 774 776 777 778 780 781 783 785 786 788 789 791 792 794 795 797 798 799 800 800 802 803 804 806 807 808 809 810 810 811 812 812 813 813 814 814 815 816 816 817 818 818 819 819 820 820 821 821 822 823 823 823 823 823 823 823 823 823 823 823 824 827 828 827 827 828 829 830 832 833 835 835 836 836 836 837 837 837 836 836
766 767 769 771 773 775 776 778 780 782 783 784 786 788 790 790 792 794 795 796 798 799 800 801 801 803 804 805 807 808 809 809 810 811 812 812 813 814 814 815 815 816 816 817 817 818 819 819 820 820 821 821 822 823 823 823 823 823 823 823 823 823 823 823 823 825 827 828 827 827 828 830 831 832 834 835 836 836 837 837 837 837 838 837 837
767 768 770 772 774 775 777 779 781 783 784 786 788 789 791 792 794 794 796 797 798 800 800 802 802 804 805 807 808 809 810 810 811 812 812 813 814 814 814 815 815 816 816 817 818 818 819 820 820 821 821 821 822 823 823 824 823 823 823 823 823 823 824 824 824 825 827 828 826 827 829 830 831 832 834 836 836 836 837 837 838 838 838 838 837
768 769 771 773 774 776 778 780 782 784 785 787 789 790 792 793 795 795 797 798 799 800 801 802 803 804 806 808 809 809 810 811 811 812 813 814 814 815 815 815 816 816 817 817 818 819 819 820 821 821 821 822 822 823 823 824 824 824 823 823 823 824 823 824 825 826 828 828 827 828 829 830 831 832 834 836 836 837 837 838 838 838 838 838 838
770 771 772 774 775 778 779 781 783 785 787 788 790 791 793 794 795 796 797 799 799 800 801 802 803 805 807 809 809 809 810 811 812 813 813 814 815 815 815 816 816 817 817 817 818 819 819 820 821 821 822 822 822 823 823 824 824 824 824 823 823 823 824 824 825 827 827 827 827 828 829 830 831 832 834 836 836 837 838 838 838 839 839 839 839
771 773 774 775 776 778 779 782 784 786 788 789 790 791 793 794 795 796 797 799 800 801 801 802 804 806 808 809 809 809 810 811 812 813 814 814 815 816 816 816 817 817 817 818 818 818 819 820 820 821 822 822 822 823 823 824 824 824 824 824 824 823 823 824 825 827 826 826 828 828 829 830 831 832 834 836 836 837 838 838 839 839 839 839 839
772 774 775 776 777 779 779 782 784 786 788 788 790 790 792 794 795 796 797 799 799 801 801 803 805 807 809 809 809 810 810 811 813 813 814 814 815 816 816 817 817 817 817 817 818 818 819 819 820 821 821 822 822 822 823 824 824 824 824 824 824 823 824 824 825 826 826 826 828 828 830 831 832 832 834 836 836 837 838 838 839 839 839 839 839
772 774 775 776 777 779 780 782 784 786 788 788 789 790 792 793 795 797 798 799 799 801 802 804 806 808 810 809 808 809 810 811 812 813 813 814 815 815 816 817 817 816 817 817 818 818 818 819 820 820 821 822 822 822 823 823 824 824 824 824 824 824 824 824 825 826 825 826 827 828 829 830 832 833 834 836 836 837 838 838 839 839 839 839 840
772 773 774 775 776 779 781 783 784 786 787 787 789 791 792 793 795 797 798 799 800 802 804 806 807 809 810 808 808 809 810 811 811 812 813 814 814 815 815 815 816 815 815 816 817 818 818 819 820 821 821 822 822 822 822 822 823 823 823 824 824 824 824 824 825 826 825 825 827 828 829 830 831 833 834 835 836 837 838 839 839 839 839 839 839
771 771 773 775 776 778 781 783 784 786 786 787 790 791 793 794 795 796 798 799 800 803 805 807 807 807 808 808 809 809 810 810 811 811 812 813 814 814 814 814 815 815 815 816 816 817 818 818 819 820 821 822 822 821 821 822 822 823 823 823 823 824 824 825 825 826 826 826 827 828 829 830 831 833 834 835 836 837 837 838 839 839 839 839 839
768 770 772 774 776 778 780 783 784 786 787 788 790 792 793 794 795 796 798 799 801 803 805 807 806 806 807 808 809 808 808 809 810 811 812 813 814 813 813 814 815 815 816 816 816 817 817 818 819 820 821 821 821 821 821 822 822 823 822 823 823 823 825 825 825 826 825 826 827 828 829 829 830 832 834 835 836 837 837 838 839 839 839 839 839
768 769 771 773 775 777 779 782 785 786 787 788 789 791 792 794 795 796 797 799 801 803 805 806 805 805 806 807 808 808 807 808 809 811 812 813 814 814 813 815 816 816 816 815 816 816 817 818 818 819 820 820 821 820 821 822 822 822 822 823 823 823 825 825 825 826 825 826 827 828 829 829 830 832 834 835 836 836 837 837 838 838 839 839 839
767 768 770 772 773 776 779 781 784 786 787 788 789 790 792 793 794 795 797 798 800 802 804 804 803 803 804 805 807 807 807 808 809 810 812 813 814 813 813 814 816 816 815 815 816 816 817 818 819 819 820 820 820 821 821 822 821 822 822 823 823 823 824 825 826 826 826 826 827 828 829 829 830 831 833 834 835 836 836 837 838 838 838 839 839
766 768 770 771 773 775 778 780 783 785 787 788 789 790 792 793 793 795 796 797 798 800 802 802 801 801 802 804 805 806 807 808 809 810 812 813 812 811 812 814 815 815 815 815 816 817 818 818 819 820 820 820 821 821 821 821 821 821 822 822 823 823 824 825 826 826 825 826 827 828 828 829 830 830 832 833 835 836 836 837 837 837 838 838 839
765 768 769 770 773 775 777 779 782 784 785 787 789 790 791 792 793 794 795 795 798 799 800 800 801 802 803 804 805 806 807 808 809 810 812 812 811 811 812 813 813 814 815 815 816 817 818 819 820 820 821 821 821 821 821 821 822 822 822 822 822 823 824 824 825 826 825 826 827 827 828 829 829 830 831 833 834 835 836 836 837 837 837 837 838
765 767 769 770 772 774 777 779 781 783 785 787 789 790 791 792 793 793 793 794 796 798 798 800 801 802 803 804 805 806 808 809 809 810 811 811 811 811 812 813 812 813 815 816 817 818 819 820 821 822 822 821 820 821 821 821 822 822 822 822 823 823 823 824 825 826 825 826 827 827 828 828 829 830 830 832 833 834 835 836 836 837 837 837 838
765 767 768 770 771 773 776 778 781 783 785 787 789 790 791 792 792 792 793 794 795 796 797 798 800 801 802 804 805 806 807 808 809 810 810 811 811 812 812 813 812 813 816 817 818 819 820 821 823 823 822 821 820 820 821 821 821 821 821 822 823 823 823 823 824 825 825 825 826 827 828 828 829 829 830 831 832 833 834 835 836 836 836 837 837
765 767 768 770 772 773 775 777 780 783 785 787 788 790 790 791 792 792 794 795 796 796 797 798 799 800 802 804 806 806 807 807 808 809 809 811 811 812 813 814 814 815 817 818 819 819 821 822 823 823 822 822 820 819 820 820 820 820 820 821 822 823 824 824 824 825 825 825 825 827 827 827 828 829 829 830 831 833 833 834 835 836 836 836 837
765 767 768 770 772 773 775 777 780 783 785 786 788 790 790 791 791 793 795 796 797 798 798 800 800 801 803 804 805 806 806 807 808 808 809 809 810 810 811 812 814 815 815 816 816 817 819 821 822 823 823 823 821 820 819 819 819 819 820 821 822 822 823 824 824 824 825 824 824 825 826 827 827 828 829 830 831 832 833 834 834 835 835 836 837
765 767 768 770 772 773 775 778 781 783 785 787 788 789 790 792 792 793 795 796 798 800 800 802 802 802 803 803 804 805 805 806 807 808 808 808 809 809 810 811 813 814 815 814 815 815 817 819 821 822 822 822 821 821 820 819 819 819 820 821 822 822 823 823 824 824 825 824 824 824 825 826 826 827 829 830 831 831 833 833 833 834 834 835 836
764 766 768 770 772 774 776 778 781 783 785 787 788 789 791 792 793 794 796 797 799 801 802 803 804 803 803 804 804 804 805 805 806 808 808 808 809 810 812 813 812 813 815 815 815 816 818 820 821 822 821 821 821 820 819 819 820 820 820 821 821 822 822 822 822 823 824 824 824 824 824 825 826 827 828 829 830 831 832 833 833 834 834 835 836
764 767 768 770 773 774 776 778 781 782 784 786 788 789 791 792 793 795 796 797 799 800 801 802 803 803 803 804 804 804 804 804 805 807 807 808 809 810 813 814 812 812 813 814 815 816 817 818 819 820 821 820 820 819 819 819 820 820 820 821 821 822 822 821 821 822 823 824 824 824 824 824 825 826 827 828 829 830 831 832 833 833 834 835 835
765 767 768 771 773 774 776 778 780 782 784 786 787 789 791 792 793 795 796 797 798 799 799 800 801 801 802 803 803 804 804 804 804 805 807 808 809 810 811 812 812 812 813 813 814 815 816 817 817 818 819 819 819 819 819 819 819 820 820 821 822 822 823 822 821 821 822 823 823 824 824 824 824 825 826 827 828 829 830 831 832 833 833 834 835
765 767 769 770 772 774 776 778 780 782 784 786 787 789 790 792 793 795 796 796 797 798 799 799 800 800 801 802 803 803 804 804 805 805 806 807 808 809 809 810 811 811 811 811 812 813 814 815 815 816 817 818 818 818 819 819 819 820 821 821 822 823 823 823 822 821 821 822 822 823 824 824 824 824 825 826 827 829 829 830 831 832 833 833 834
766 767 769 771 772 774 776 778 780 782 784 785 787 789 790 792 793 794 795 796 797 798 799 799 800 801 801 802 803 803 804 805 805 805 806 807 806 807 808 808 809 809 809 810 811 812 813 814 813 814 815 817 817 817 818 819 818 819 820 821 822 824 824 824 823 823 822 822 822 822 823 824 825 825 826 826 827 827 828 829 830 831 832 832 833
766 768 769 771 772 774 776 778 780 782 783 785 787 788 790 791 793 794 795 796 797 798 799 800 800 801 802 803 803 804 804 805 805 806 806 806 806 807 807 808 808 808 808 809 810 811 812 812 812 813 815 816 816 817 818 818 818 819 820 821 822 825 826 826 825 825 824 823 822 822 822 823 824 825 825 826 827 827 827 828 829 829 830 831 832
766 768 769 771 772 773 776 777 779 781 783 784 786 788 789 791 792 794 795 796 797 798 799 800 800 801 802 803 804 805 805 806 806 806 806 806 807 807 807 807 808 808 808 809 810 811 811 812 812 813 814 815 816 816 817 817 818 819 820 821 823 825 827 827 827 826 825 825 823 822 822 822 823 824 824 825 826 826 826 827 828 829 829 830 831
766 768 769 770 772 774 775 777 779 781 782 784 785 787 788 790 792 793 794 795 796 798 799 800 801 802 803 804 805 805 806 807 806 806 806 806 806 807 807 807 808 808 809 809 810 810 810 811 811 812 813 814 815 815 816 817 817 818 820 821 822 824 825 825 826 826 825 825 824 823 822 822 822 823 824 825 826 826 826 826 827 827 828 829 830
767 768 769 770 772 773 775 776 778 780 782 783 785 787 788 789 791 792 793 795 796 798 799 801 802 802 803 804 805 805 806 806 806 806 806 806 807 807 807 807 808 808 809 809 809 809 810 810 810 811 812 813 814 814 815 816 817 818 820 822 822 823 824 824 824 825 825 824 824 823 822 822 822 822 823 824 824 825 826 826 826 827 827 828 828
768 768 768 770 771 773 774 775 778 779 781 783 784 786 788 789 791 792 793 795 797 798 800 801 802 803 804 804 805 806 806 806 806 806 806 807 807 807 808 808 808 809 809 809 809 809 810 810 810 811 811 812 813 813 814 815 816 817 819 820 821 823 824 823 823 823 824 824 824 823 822 822 822 823 823 823 823 823 824 825 826 826 827 827 828
768 768 768 770 770 772 774 775 777 779 780 782 784 785 787 789 790 792 794 796 798 799 800 802 803 804 804 805 806 806 807 807 807 807 807 808 808 808 809 808 808 809 809 809 809 809 810 810 810 810 810 812 813 813 814 814 815 816 818 819 821 824 824 822 822 822 822 823 823 822 822 822 821 822 822 822 823 823 823 824 824 825 826 827 827
769 769 769 769 770 772 773 775 776 778 780 782 783 785 787 789 791 793 795 796 798 799 800 802 803 804 805 805 806 807 807 808 808 808 809 809 809 809 809 809 809 809 809 809 810 810 810 811 811 811 811 811 812 813 814 814 815 816 817 819 821 823 822 821 822 822 822 823 823 822 821 821 821 821 821 821 822 822 823 823 824 824 825 825 826
770 770 770 769 770 771 773 775 776 777 780 781 783 785 786 789 791 793 795 796 797 798 800 802 803 804 805 806 806 807 808 809 809 810 810 810 810 810 810 810 810 810 810 811 810 811 811 811 812 812 812 812 813 813 814 816 816 817 818 819 820 820 821 822 822 823 824 824 823 821 820 820 820 820 820 820 820 821 822 823 823 824 824 825 825
770 770 770 769 770 771 772 774 775 777 779 781 783 784 786 788 791 793 794 795 796 798 800 802 803 804 805 806 806 807 808 809 810 811 811 811 811 812 811 811 811 811 811 812 812 812 812 812 812 812 813 813 814 814 815 816 817 818 819 819 819 819 820 822 822 821 824 825 823 821 820 819 819 819 820 820 820 821 821 821 822 823 823 824 825
768 770 769 769 769 770 772 773 775 777 778 780 782 784 786 787 790 792 794 795 796 798 800 801 803 804 805 806 807 808 809 809 810 811 812 812 812 812 812 812 812 812 812 813 813 813 813 813 813 814 814 814 815 815 815 816 817 818 819 820 819 819 820 822 821 820 821 823 823 821 820 819 819 819 819 819 820 820 820 820 821 822 823 824 824
766 769 768 768 768 769 771 773 774 776 777 779 781 784 786 787 789 791 793 794 796 797 799 801 803 804 805 806 807 808 809 810 811 811 812 813 813 813 813 813 813 813 814 814 814 814 814 814 815 815 815 816 816 816 816 817 818 818 819 819 819 820 821 821 820 820 821 822 822 820 819 819 818 818 818 818 819 819 819 819 820 820 821 822 822
765 768 767 766 767 767 769 771 773 775 777 779 781 783 785 786 788 791 792 794 795 797 799 800 802 804 805 806 807 808 809 810 811 812 812 813 813 814 814 814 814 814 815 815 815 815 815 815 816 816 816 817 817 818 818 818 819 819 819 819 820 821 821 821 821 821 821 821 821 820 818 817 817 816 816 816 817 817 817 818 818 819 819 820 821